Theta_e
309 311 312 311 310 309 308 309 309 309 310 311 312 313 313 313 311 309 307 307 308 306 303 301 299 297 297 296 296 296 295 295 294 293 292 291 290 289 288 287 286 286 285 284 284 284 284 283 283 283 283 284 284 284 284 285 285 285 285 285 285 285 285 285 286 286 286 286 286 286 285 285 284 283 284 283 283 284 283 283 283 282 282 282 282 282
310 311 310 309 308 308 308 310 310 311 311 311 313 313 313 313 310 307 307 307 307 306 302 300 299 298 297 296 296 296 295 295 294 293 292 291 290 289 288 287 287 286 285 284 284 284 283 283 283 283 283 283 283 284 284 284 284 284 284 284 284 284 284 284 284 284 284 284 284 284 284 283 283 282 283 282 283 283 282 282 282 282 282 282 281 281
311 310 308 307 308 308 309 310 310 311 311 312 313 313 313 312 310 307 307 306 306 306 302 300 299 297 296 296 296 296 295 295 294 293 292 291 290 289 288 288 287 286 285 285 284 283 283 283 283 283 283 282 282 283 283 283 283 283 283 283 283 283 283 283 283 283 283 283 282 282 282 282 282 281 281 281 281 281 281 281 281 281 281 281 281 280
310 308 306 307 309 309 309 309 308 308 309 311 311 311 311 310 310 310 307 306 306 306 303 301 299 297 296 295 295 295 294 293 293 292 291 291 290 289 288 288 287 286 285 285 284 283 283 282 283 283 282 282 282 282 282 282 282 282 282 282 282 282 282 282 282 281 281 281 281 281 281 281 281 280 280 280 280 280 280 280 280 279 279 279 279 279
309 307 306 308 309 310 310 308 306 306 307 309 308 308 309 307 308 310 308 306 305 305 304 302 300 298 296 295 294 293 293 293 292 291 291 290 289 288 288 287 287 286 285 285 284 283 283 282 283 283 282 282 282 282 281 281 281 281 281 280 280 280 280 280 280 280 280 280 280 280 280 280 280 280 279 279 280 280 279 279 279 278 278 278 277 277
308 308 307 308 308 308 309 308 306 306 307 307 307 307 307 306 308 308 307 306 306 306 304 303 304 301 296 295 294 293 293 292 292 292 291 290 289 289 288 287 286 286 285 284 284 283 283 283 283 282 282 282 281 281 280 280 280 280 280 279 279 279 279 279 279 279 279 279 278 278 278 278 278 278 277 277 277 278 277 277 277 277 277 276 276 275
307 307 307 307 307 306 307 306 306 306 306 307 308 307 306 307 308 308 308 307 307 308 305 304 307 304 297 295 294 294 293 293 292 292 291 291 290 289 288 287 287 286 285 284 284 283 283 283 282 282 281 281 280 280 280 280 280 279 279 279 278 278 278 278 278 277 277 277 277 276 276 276 276 276 275 275 275 275 275 275 275 275 275 275 274 274
307 306 306 305 305 305 305 305 305 305 306 309 309 307 307 307 307 308 309 308 308 307 305 303 305 305 300 296 294 294 294 293 292 292 291 290 290 289 288 287 286 286 285 284 283 283 283 283 282 281 281 280 280 280 280 279 279 278 278 278 277 277 277 277 277 276 276 276 276 275 275 275 275 275 275 274 274 274 274 274 274 274 274 274 273 273
306 306 305 304 304 304 304 304 305 305 306 308 309 307 306 306 306 307 308 308 307 307 307 305 304 307 302 295 295 295 294 294 293 292 291 290 289 289 288 287 286 285 284 284 284 283 283 282 282 281 280 280 279 279 279 278 278 277 277 277 276 276 276 276 276 276 276 275 275 275 275 274 274 274 274 274 273 273 274 274 274 274 273 273 273 273
306 305 304 303 303 303 303 304 304 305 306 306 307 306 307 307 307 307 307 306 307 307 307 305 304 306 302 295 295 296 294 295 294 292 291 290 289 289 288 287 286 286 285 285 284 283 282 282 281 281 280 279 279 278 278 278 277 276 276 276 276 275 275 275 275 275 275 275 274 274 274 273 273 273 273 273 273 273 273 273 273 273 273 272 272 272
305 305 304 303 303 303 303 304 305 305 305 305 306 306 307 308 307 306 306 305 306 307 305 303 304 305 303 297 295 295 295 295 294 292 291 291 290 289 288 287 287 286 285 285 284 283 282 281 281 280 279 279 278 277 277 277 276 275 275 275 275 274 274 274 274 274 274 274 273 273 273 272 272 272 273 272 272 272 271 271 272 271 271 272 271 271
307 307 305 303 303 302 303 304 305 306 305 305 306 306 306 307 306 305 306 306 307 307 305 302 303 304 304 298 294 294 293 294 293 293 292 290 289 288 287 287 286 286 285 285 284 283 282 281 280 280 279 278 278 277 277 276 276 275 274 274 274 274 274 274 274 274 274 273 273 273 272 272 272 271 272 271 271 271 270 270 270 270 270 271 270 270
307 306 304 304 303 302 302 303 304 305 305 305 305 304 305 306 305 305 306 306 307 307 304 302 303 303 300 295 292 292 291 291 291 292 291 290 288 287 287 286 286 286 285 285 284 283 282 281 280 280 279 278 277 277 276 276 276 275 274 273 273 273 273 273 273 273 273 273 272 272 271 271 271 270 270 270 270 270 269 269 269 269 269 269 269 269
306 305 304 304 303 302 302 301 302 303 304 303 303 304 305 305 304 304 304 304 305 305 304 303 303 302 297 293 291 290 290 289 289 289 289 289 288 287 287 286 286 286 285 285 284 283 282 281 281 279 279 278 277 277 276 276 275 274 273 273 273 272 272 272 271 271 271 271 271 271 270 270 270 270 269 269 269 269 268 269 269 269 269 268 268 268
306 305 303 303 302 302 302 302 302 303 303 304 303 303 304 304 303 303 304 304 304 303 303 304 304 302 298 293 290 289 289 289 289 288 288 288 287 287 287 286 286 285 285 285 284 283 283 282 281 279 278 278 277 277 276 275 275 274 273 273 272 272 271 271 270 270 270 270 270 270 269 269 269 269 269 269 268 268 268 268 268 268 268 267 267 267
305 304 303 302 301 301 302 302 303 303 303 303 303 302 302 302 302 303 304 303 304 303 303 303 300 296 294 291 289 289 289 289 289 288 288 288 287 287 287 286 286 285 285 285 284 284 283 282 280 279 278 278 277 276 276 275 275 273 273 272 272 271 271 270 270 270 270 269 269 269 269 269 269 269 269 268 268 268 268 268 267 267 267 267 267 267
304 304 303 302 301 300 300 302 302 302 301 302 302 301 300 300 301 303 303 301 301 302 301 301 299 294 292 291 290 289 289 289 289 289 288 288 287 287 287 286 286 285 284 285 284 284 283 281 280 279 278 277 277 276 276 275 274 273 272 272 272 271 271 270 270 269 269 269 269 269 269 269 269 268 268 268 267 267 267 267 267 267 266 266 266 266
303 304 303 302 303 301 300 301 302 301 301 302 302 300 299 301 301 301 302 300 301 301 299 300 301 297 297 296 290 289 290 290 289 289 289 288 288 287 287 287 287 285 284 284 284 283 282 281 280 279 278 277 276 276 275 275 274 273 272 272 271 271 270 270 270 269 269 269 268 268 268 268 268 268 267 267 267 267 266 266 266 266 266 266 265 265
302 304 303 302 303 302 300 302 302 301 300 301 301 299 299 301 302 301 300 300 301 301 300 299 300 299 299 297 292 290 292 291 291 290 289 288 288 288 288 287 287 285 284 284 283 282 281 280 279 279 278 277 276 275 275 274 273 273 272 271 271 270 270 270 269 269 268 268 268 268 268 268 267 267 267 267 266 266 266 266 266 265 265 265 265 265
302 304 303 303 303 302 301 301 301 300 299 300 299 298 298 300 301 300 299 300 301 301 299 298 299 299 297 295 293 293 293 292 292 291 289 289 289 288 288 287 287 285 284 283 283 281 280 280 279 278 277 277 276 275 274 274 273 272 272 271 271 270 270 269 269 268 268 268 268 267 267 267 267 267 266 266 266 266 266 265 265 265 265 265 265 265
302 303 302 303 303 302 300 299 298 298 298 299 298 297 297 299 299 299 299 301 300 299 298 298 299 298 295 293 293 293 292 292 291 291 290 289 289 288 287 287 286 285 284 283 282 281 280 279 278 278 277 276 275 274 274 273 273 272 271 271 270 270 269 269 268 268 268 267 267 267 267 267 266 266 266 266 266 265 265 265 265 265 265 264 264 264
300 300 301 302 302 301 299 297 297 297 297 297 297 296 296 297 298 299 299 299 298 297 298 298 298 297 294 292 292 292 291 291 290 289 289 288 288 287 287 286 286 284 283 282 281 280 279 278 278 277 276 275 275 274 273 273 272 271 271 270 270 269 269 268 268 268 267 267 267 267 266 266 266 266 266 265 265 265 265 265 264 264 264 264 264 264
298 299 300 302 300 298 298 296 297 297 296 296 296 295 296 296 296 297 297 298 297 297 298 298 296 295 293 291 291 291 290 290 289 288 288 287 287 287 286 286 285 284 283 281 280 279 278 278 277 276 276 275 274 273 273 272 271 271 270 270 269 269 268 268 267 267 267 266 266 266 266 266 266 265 265 265 265 264 264 264 264 264 264 264 264 264
299 298 300 301 298 297 297 296 296 296 296 296 295 294 295 295 294 295 296 296 297 297 296 294 293 294 293 291 291 290 289 289 288 288 288 288 288 287 286 286 285 283 282 281 280 279 278 277 277 276 275 274 274 273 272 272 271 270 270 269 269 268 268 267 267 267 266 266 266 266 265 265 265 265 265 264 264 264 264 264 264 264 264 264 263 263
300 299 299 300 299 298 298 297 297 297 297 296 295 294 294 294 295 295 294 295 296 295 292 291 293 294 293 291 290 289 288 288 288 288 288 288 287 287 286 285 284 283 281 280 279 278 278 277 276 275 274 274 273 272 272 271 270 270 269 269 268 268 267 267 267 266 266 266 265 265 265 265 265 264 264 264 264 264 264 264 264 264 263 263 263 262
300 300 297 298 298 298 299 299 299 298 297 296 295 295 294 294 295 295 295 296 297 294 291 292 294 293 292 291 290 289 289 288 288 288 288 287 287 286 285 285 284 282 281 280 279 278 277 277 276 275 274 273 273 272 271 271 270 269 269 268 268 267 267 266 266 266 266 265 265 265 265 264 264 264 264 264 264 264 264 264 263 263 263 262 262 262
300 300 296 296 298 297 298 298 298 297 296 295 296 295 294 294 294 295 295 295 295 293 292 293 293 291 291 291 291 290 289 289 288 287 287 286 286 286 285 285 283 282 281 280 279 278 277 276 275 274 273 273 272 271 271 270 269 269 268 268 267 267 266 266 266 265 265 265 265 264 264 264 264 264 263 263 263 263 263 263 263 262 262 262 262 262
299 300 296 296 298 297 297 296 296 296 295 294 295 295 294 293 293 294 294 293 292 292 292 291 291 291 290 290 290 290 288 288 287 287 286 286 286 285 285 283 282 281 280 280 278 277 277 276 275 274 273 272 271 271 270 269 269 268 268 267 267 266 266 266 265 265 265 264 264 264 264 263 263 263 263 263 263 263 263 262 262 262 262 262 262 262
297 300 298 297 297 296 295 296 296 295 295 294 294 294 294 293 293 294 294 292 292 292 291 291 291 291 290 290 290 288 287 287 287 286 286 286 286 285 284 282 281 280 280 279 278 277 276 275 274 273 272 271 271 270 269 269 268 268 267 267 266 266 265 265 265 264 264 264 264 264 264 263 263 263 263 263 263 263 262 262 262 262 262 262 262 261
296 300 299 297 298 296 296 297 296 294 294 294 293 293 293 293 293 293 293 293 292 292 291 291 291 290 290 290 288 287 287 287 286 286 286 285 285 284 283 281 280 280 279 278 277 276 275 274 273 272 271 271 270 269 269 268 268 267 267 266 266 265 265 265 264 264 264 264 264 263 263 263 263 263 263 263 262 262 262 262 262 262 262 262 262 261
297 299 298 296 297 298 297 296 295 294 293 293 293 294 293 293 293 293 293 293 292 292 291 291 290 290 289 288 288 287 287 287 286 286 286 285 284 283 282 281 280 279 278 277 276 275 275 274 273 272 271 270 269 269 268 268 267 267 266 265 265 265 265 264 264 264 264 264 264 263 263 262 262 262 262 262 262 262 262 262 262 262 262 262 262 261
295 296 297 296 297 298 296 296 295 293 292 293 294 294 293 293 293 293 293 293 292 291 291 290 290 290 289 288 288 288 287 286 286 286 285 284 284 283 282 281 280 278 277 276 275 275 274 273 272 271 270 269 269 268 268 267 267 266 265 265 265 264 264 264 264 264 264 264 263 263 262 262 262 262 262 262 262 262 262 262 262 262 262 262 262 261
294 295 297 296 296 297 296 295 294 293 293 296 295 294 293 293 293 292 292 292 291 290 290 290 289 290 289 288 288 287 286 286 285 285 284 284 283 282 281 280 279 277 276 275 275 274 273 272 271 270 269 269 268 268 267 267 266 265 265 265 264 264 264 264 264 264 264 263 263 262 262 262 262 262 262 262 262 263 263 262 262 262 262 262 261 262
295 296 296 294 295 296 296 295 294 294 296 297 294 293 293 293 292 292 291 290 290 290 289 289 289 289 289 288 287 286 286 285 285 284 284 283 282 281 280 279 278 277 276 275 274 273 272 271 270 269 269 268 268 267 267 266 266 265 265 265 265 264 264 264 264 264 263 263 262 262 262 262 262 262 262 262 262 263 263 262 262 262 262 261 261 262
295 296 295 294 295 296 296 295 294 296 297 294 291 290 291 290 290 290 290 289 289 289 289 289 289 289 288 287 286 286 285 285 284 284 283 282 281 280 279 278 277 276 275 274 273 272 271 270 269 269 268 268 267 267 266 266 265 265 265 265 265 264 264 264 264 263 263 262 262 262 262 262 262 262 262 262 262 262 262 262 261 262 261 261 261 261
293 294 294 295 295 295 295 294 294 295 294 291 290 290 290 289 289 289 289 289 289 289 289 289 289 288 287 286 286 285 285 284 283 283 282 280 279 279 278 277 276 275 274 273 272 271 270 269 269 268 267 267 267 266 266 265 265 264 265 265 264 264 264 263 263 263 263 262 262 262 262 261 261 262 262 262 262 262 262 261 261 261 261 261 261 261
292 293 294 294 294 294 293 294 294 294 293 291 290 290 290 289 289 288 288 289 288 288 288 288 288 287 286 286 285 285 284 283 282 282 280 278 278 277 277 276 275 274 273 272 272 271 270 269 268 268 267 267 266 266 265 265 264 264 265 265 264 263 263 263 263 263 263 262 262 262 261 261 261 261 262 262 262 261 261 261 261 261 261 261 261 261
291 292 292 293 294 294 294 294 293 293 294 293 291 289 288 288 287 287 287 288 288 287 287 287 286 286 285 285 284 284 282 281 282 281 279 277 277 276 276 275 274 273 273 272 271 270 270 269 268 267 267 266 266 265 265 265 265 264 265 264 264 263 263 263 263 263 262 262 262 262 261 261 261 261 261 261 261 261 261 261 261 261 261 261 261 261
292 291 292 293 294 294 293 293 293 293 294 293 290 288 287 287 286 286 288 289 288 286 286 286 285 285 285 284 284 283 282 281 282 281 279 277 277 276 275 275 274 273 272 271 271 270 269 268 268 267 267 266 265 265 265 265 265 265 264 264 264 263 263 263 263 263 262 262 262 262 262 261 261 261 261 261 261 261 261 261 261 261 261 261 261 261
293 293 294 294 295 294 293 293 293 294 293 291 289 288 287 286 286 287 291 291 287 285 286 286 285 285 285 284 283 282 282 282 282 281 280 278 277 276 275 274 273 272 271 271 270 270 269 268 267 267 266 266 265 265 265 264 264 264 264 264 263 263 263 263 263 263 262 262 262 262 262 262 261 261 261 261 261 261 261 261 261 261 261 261 261 260
295 295 294 294 294 294 294 294 293 294 293 290 288 287 286 286 287 290 292 290 286 285 286 285 285 285 284 284 283 282 282 282 281 281 280 278 277 276 275 274 272 272 271 270 270 269 268 267 267 266 266 265 265 264 264 264 264 263 263 263 263 263 263 263 263 263 262 262 262 262 262 261 261 261 261 261 261 261 262 261 261 261 261 261 261 260
295 295 294 293 294 294 293 293 293 294 292 289 287 286 286 287 290 291 290 288 287 286 286 285 285 285 284 283 283 282 282 281 281 280 279 277 276 275 274 273 272 271 270 270 269 268 267 267 266 266 265 265 264 264 264 263 263 263 263 263 263 263 263 263 263 263 262 262 262 262 262 262 261 261 261 261 261 261 262 261 261 261 261 261 260 260
294 295 295 295 295 294 293 292 293 294 292 288 287 287 286 289 292 290 288 287 287 286 286 285 285 284 284 283 282 282 281 281 280 279 278 276 275 274 273 272 271 271 270 270 269 268 267 267 266 266 265 265 264 264 263 263 263 263 263 263 263 263 263 263 262 262 262 262 262 262 262 262 262 262 261 262 261 261 261 261 261 261 261 260 260 260
293 294 295 295 294 293 293 292 293 294 291 288 289 290 289 289 290 289 287 287 287 286 286 285 284 284 283 282 282 281 280 280 279 278 277 275 275 274 273 272 271 270 270 269 268 268 267 267 266 266 265 265 264 264 264 263 263 263 263 263 263 263 263 262 262 262 262 262 262 262 262 262 262 262 262 262 261 261 261 261 261 261 261 260 259 259
294 293 292 293 294 293 293 293 293 292 291 289 289 290 290 289 289 288 288 287 286 286 285 285 284 284 283 282 281 280 280 279 278 277 276 275 274 273 272 271 271 270 269 269 268 267 267 267 266 266 266 265 264 264 264 263 263 263 263 263 263 262 262 262 262 262 262 262 262 262 262 262 262 262 262 262 261 261 261 261 261 261 261 260 259 259
293 291 290 291 293 292 291 292 291 291 291 291 290 290 290 289 289 288 288 287 286 285 285 284 284 283 282 281 281 280 279 278 277 276 275 274 273 272 272 271 270 270 269 268 268 267 267 267 266 266 266 265 265 264 264 264 263 263 263 263 263 262 262 262 262 262 262 262 262 262 262 262 262 262 262 261 261 261 261 261 261 260 260 260 259 258
291 290 289 290 291 291 291 291 291 291 291 291 291 290 290 289 289 288 287 287 286 285 284 284 283 283 282 281 280 279 278 277 276 275 274 273 273 272 271 271 270 269 269 268 267 267 267 266 266 266 265 265 265 264 264 264 264 263 263 263 263 263 262 262 262 262 262 262 262 262 262 262 262 262 261 261 261 261 261 261 261 260 260 260 259 258
292 289 289 290 289 290 291 291 291 291 291 291 291 291 290 289 288 288 287 286 285 285 284 284 283 282 281 280 279 278 278 277 276 275 274 273 272 271 271 270 269 269 268 268 267 267 266 266 266 266 265 265 264 264 264 264 264 263 263 263 263 263 262 262 262 262 262 262 262 262 262 262 261 261 261 261 261 261 261 261 261 260 260 260 259 258
291 290 290 290 290 290 290 291 291 291 291 291 291 290 290 289 288 287 286 286 285 284 284 283 282 281 280 279 279 278 277 276 275 274 273 272 271 271 270 270 269 268 268 268 267 267 266 266 266 266 265 265 264 264 264 264 263 263 263 263 263 262 262 262 262 262 262 262 262 262 262 262 261 261 261 261 261 261 261 261 261 260 261 260 259 258
290 291 291 291 291 291 291 291 291 291 291 290 290 289 289 289 288 287 286 286 285 284 283 282 282 281 280 279 278 277 276 276 275 273 273 272 271 271 270 269 269 268 268 267 267 267 266 266 266 265 265 265 264 264 264 264 263 263 263 262 263 262 262 262 262 262 262 262 262 262 261 261 261 261 261 261 261 261 261 261 261 260 260 260 260 259
290 292 292 292 293 293 292 292 291 290 290 290 289 289 289 288 287 287 286 285 284 284 283 282 281 281 280 279 278 277 276 275 274 273 273 272 271 270 270 269 268 268 268 267 267 267 266 266 266 265 265 265 264 264 264 264 263 263 263 262 263 262 262 262 262 262 262 262 262 261 261 261 261 261 261 261 260 260 260 260 261 261 261 260 260 260
Wind_Speed
3 3 3 4 5 6 7 7 6 7 8 7 6 5 6 5 2 5 5 3 4 4 5 8 10 9 9 7 9 11 12 13 14 14 15 15 15 16 17 17 17 17 16 15 16 18 19 20 20 22 23 23 22 22 22 21 21 21 20 20 19 19 19 18 18 18 18 18 17 17 17 17 17 18 19 20 21 21 20 21 21 21 21 20 20 20
3 4 5 6 7 8 7 6 6 7 7 7 5 4 6 4 2 5 5 2 3 3 5 8 9 8 8 7 8 10 9 9 12 13 14 15 15 15 15 16 16 15 14 14 15 16 18 20 20 22 23 24 24 24 24 23 23 22 22 22 22 21 21 21 21 20 20 20 19 19 19 18 18 18 19 20 21 21 20 21 21 21 21 20 20 21
3 5 6 8 8 8 7 4 6 8 8 6 5 5 3 2 2 4 4 2 2 3 5 7 7 7 7 7 8 9 9 10 12 13 14 14 14 14 14 14 14 14 13 13 14 14 16 18 20 22 23 23 24 23 24 23 23 23 22 23 23 23 23 22 22 21 21 20 19 19 18 18 18 18 18 19 20 20 20 20 20 20 20 21 20 21
4 5 9 10 7 7 6 8 10 9 7 3 3 3 3 5 3 1 2 1 3 2 5 7 6 5 6 6 8 11 13 14 14 14 15 14 14 14 14 13 13 13 13 12 13 13 14 17 20 21 22 22 22 23 23 23 23 23 24 24 24 25 25 24 23 22 21 20 19 18 18 17 17 17 18 19 19 19 20 20 20 20 21 21 21 21
6 6 11 10 6 5 5 10 10 7 5 5 7 5 4 7 6 2 2 1 2 3 6 8 4 3 5 6 6 8 11 12 13 14 15 14 14 14 14 13 13 12 12 12 11 11 12 16 19 20 21 21 22 23 23 23 22 23 24 25 25 25 25 25 24 23 22 21 21 20 20 19 18 18 19 20 21 20 21 21 21 21 21 21 21 21
7 11 12 8 5 8 7 7 8 6 5 3 5 4 4 6 7 1 4 3 0 1 5 7 2 1 4 5 6 5 6 8 10 12 12 12 12 12 12 12 11 11 11 11 10 10 12 16 18 19 20 21 22 22 21 21 21 22 24 25 26 25 25 25 24 24 24 23 23 23 23 23 23 23 22 23 23 23 23 23 23 23 22 21 21 19
6 12 12 9 9 10 8 5 7 6 4 3 1 3 5 6 7 3 3 3 2 1 5 7 3 1 3 4 6 6 5 7 8 9 10 10 10 10 10 10 10 10 9 9 8 9 13 15 17 19 20 21 22 21 19 19 21 23 25 26 26 26 25 25 25 24 24 24 24 23 23 23 24 24 24 24 24 25 25 25 25 24 23 22 19 18
4 9 10 11 9 7 6 5 6 6 3 2 2 4 6 7 6 5 3 4 3 1 3 6 4 0 2 3 5 6 6 6 6 6 8 9 10 9 9 9 9 8 8 7 7 10 13 15 17 18 20 21 20 19 19 20 24 27 28 28 27 26 25 25 24 24 24 24 23 23 22 22 23 23 23 23 23 25 26 26 25 25 24 22 20 19
4 6 8 9 9 6 4 5 5 5 2 3 5 6 7 7 6 5 4 3 4 2 1 4 4 1 2 3 4 5 5 5 6 5 7 10 9 9 8 7 7 7 5 4 6 10 13 15 17 18 20 21 21 21 21 23 26 29 30 29 28 27 26 25 24 24 23 23 22 22 21 21 22 23 23 23 23 24 26 27 26 25 25 24 23 22
1 3 5 7 6 5 5 7 4 1 3 6 9 9 8 7 6 4 3 4 4 2 3 3 1 1 1 2 3 4 3 3 6 5 6 9 8 7 7 6 6 5 1 4 8 11 14 16 17 19 21 22 22 21 22 23 27 30 30 30 28 27 27 25 25 24 23 23 23 22 22 22 23 23 23 24 23 24 26 27 27 27 26 26 26 25
3 4 4 6 4 6 9 8 3 4 6 7 8 8 7 4 4 3 3 3 2 1 3 5 2 1 1 2 1 1 2 2 5 6 5 8 7 6 6 5 3 1 3 7 10 11 13 15 18 19 21 21 20 20 21 22 26 29 28 28 28 27 27 26 25 25 24 23 23 23 22 21 22 23 24 24 24 24 25 27 28 29 29 28 27 26
3 2 1 3 6 11 11 6 1 5 7 5 4 5 5 2 2 1 2 2 1 1 3 3 2 3 2 2 3 4 7 7 3 4 6 7 6 5 4 2 2 4 5 6 9 11 12 13 16 19 19 19 17 16 18 20 25 28 28 27 27 27 27 27 26 25 24 23 23 22 22 22 22 23 24 25 25 25 25 26 27 29 30 29 28 27
2 3 1 1 8 16 10 5 4 2 4 4 4 5 5 4 3 2 2 1 2 2 4 2 3 4 1 3 3 5 7 8 8 6 8 9 7 5 2 2 4 6 6 6 8 9 10 11 15 17 16 15 15 15 17 21 25 28 29 26 26 27 27 27 27 26 25 24 24 23 22 22 21 21 23 25 25 24 24 25 27 28 29 29 29 28
0 2 6 2 5 13 9 4 4 3 5 6 5 5 3 3 3 3 3 3 3 3 4 2 3 1 1 2 3 4 5 7 9 9 9 8 6 4 4 3 5 6 7 7 8 8 9 12 14 15 13 13 14 15 17 21 24 27 28 25 24 26 25 25 27 26 26 25 24 23 22 20 19 20 22 24 25 23 24 26 27 27 26 26 27 27
1 1 6 5 3 8 7 5 2 3 4 5 4 5 4 3 2 2 2 3 4 6 7 3 2 0 1 2 3 4 4 5 6 6 6 5 4 4 4 4 5 7 7 8 9 8 10 14 14 12 12 13 14 15 16 19 23 26 26 22 22 25 24 24 25 25 24 24 24 23 22 20 18 18 21 24 24 23 25 28 28 27 25 25 26 27
2 2 1 2 4 5 5 6 7 3 2 3 3 4 3 2 1 2 3 4 5 6 5 2 2 1 1 1 4 4 3 3 3 4 5 5 5 4 5 6 6 7 8 9 9 9 11 13 13 12 12 13 14 15 16 19 23 26 25 22 21 23 23 24 24 24 24 23 23 24 22 20 18 19 22 24 24 25 27 28 27 26 25 25 27 28
2 1 2 2 3 4 3 5 8 8 2 4 3 3 5 3 2 1 4 5 4 5 3 1 2 1 1 2 4 4 4 5 6 7 7 6 6 6 7 8 9 9 9 9 10 11 12 13 13 11 12 13 14 14 16 20 24 25 25 23 22 23 23 23 24 24 23 23 24 24 21 19 19 20 22 23 24 26 27 26 26 26 26 26 27 28
1 2 1 2 2 2 2 1 5 12 8 3 2 4 7 2 2 0 3 3 4 3 2 2 2 1 1 1 3 5 6 6 6 9 9 8 9 10 10 10 10 9 9 10 10 10 10 10 11 11 12 13 14 15 18 21 22 23 25 24 23 23 23 23 24 23 23 23 24 23 20 19 20 21 22 23 25 26 26 26 26 26 27 28 28 28
2 2 2 2 3 4 3 2 2 10 13 7 4 5 4 1 1 2 2 2 3 4 3 4 5 1 1 1 2 5 7 7 6 7 7 8 11 11 10 10 10 9 9 10 9 9 9 9 11 12 12 14 15 16 18 20 21 23 25 24 23 23 23 23 23 23 23 24 24 22 20 21 21 22 23 24 25 25 26 27 27 27 28 29 29 29
2 1 2 3 3 4 3 3 2 4 8 8 6 6 2 1 1 1 1 1 2 3 4 4 4 2 0 1 1 2 4 6 6 5 7 10 12 12 11 10 11 10 9 10 9 8 9 10 11 12 13 14 16 16 16 19 22 24 24 23 23 23 23 23 23 23 25 25 23 21 21 22 23 24 24 24 25 27 28 27 27 27 29 30 30 30
3 1 2 3 1 3 1 3 2 2 4 4 4 5 4 3 2 1 1 0 0 2 3 4 4 1 2 0 0 1 2 3 3 3 4 6 7 9 10 11 11 11 11 10 9 9 10 12 12 12 14 15 16 16 18 21 24 24 24 23 23 23 22 23 24 25 26 25 22 21 22 23 24 24 24 25 27 28 28 27 27 28 29 29 30 29
3 2 2 4 2 2 2 1 2 3 3 3 3 3 4 3 2 1 1 1 2 1 2 3 5 2 2 1 0 1 1 2 2 1 0 3 6 8 10 11 12 12 11 9 9 10 12 12 12 12 13 14 15 17 20 23 23 23 23 22 22 22 23 24 25 26 25 24 23 22 23 24 24 24 25 26 27 27 26 26 28 29 29 29 28 27
2 2 3 3 2 3 4 1 2 6 7 5 4 2 3 3 2 1 2 2 2 3 4 2 3 3 1 2 2 1 2 3 3 3 4 5 6 8 10 11 12 12 10 8 9 11 11 11 11 12 13 15 17 19 21 22 22 22 22 22 22 23 24 25 25 25 25 24 24 24 25 25 25 25 26 26 26 25 25 27 28 29 29 30 30 28
2 1 3 1 1 3 2 1 1 4 4 3 4 3 2 2 1 2 2 2 2 3 3 2 3 3 2 4 4 4 5 5 6 7 8 7 8 9 10 12 13 11 9 8 9 11 11 11 11 12 14 16 18 20 21 21 22 22 22 22 22 24 25 25 25 25 25 24 24 25 25 25 25 26 25 25 25 26 27 28 29 29 30 31 31 30
3 1 2 2 1 1 0 2 2 0 1 1 3 3 3 2 2 2 1 0 2 0 5 3 5 3 2 5 5 6 6 6 8 7 6 7 8 9 11 15 15 11 9 10 10 11 11 12 12 13 15 17 19 21 22 22 23 23 22 22 23 25 25 24 24 24 24 24 25 25 25 25 25 25 24 25 26 27 28 29 29 30 30 30 29 30
2 1 2 2 2 3 2 2 1 2 2 1 3 3 3 3 3 2 1 1 2 2 6 3 5 5 2 2 4 5 6 6 5 4 7 8 8 10 15 18 15 11 11 12 12 12 12 12 13 14 16 19 20 22 22 23 24 23 22 23 24 25 24 24 24 24 24 25 25 25 25 25 25 24 25 27 27 27 28 29 30 30 29 28 29 30
1 2 2 1 2 3 3 2 0 0 3 3 1 3 2 1 1 1 2 2 3 4 4 4 5 9 9 6 4 2 3 2 2 6 7 8 10 14 18 19 14 13 13 12 11 12 12 13 14 16 18 20 21 22 22 23 23 21 22 24 24 24 24 24 24 24 25 25 24 25 25 25 25 25 26 26 26 27 28 29 29 29 29 29 29 31
2 2 1 1 4 5 5 4 1 1 3 4 2 1 1 1 1 2 3 3 3 3 4 5 8 10 11 10 7 2 2 2 4 7 9 12 15 17 18 17 16 15 14 12 11 12 13 15 16 18 20 21 21 22 22 22 22 21 23 24 24 24 23 23 24 25 26 25 25 25 24 24 25 26 25 25 26 28 29 29 29 29 29 29 30 31
0 2 0 1 5 7 7 5 1 1 4 3 3 3 3 3 3 3 4 4 2 3 6 10 11 11 11 8 4 3 3 4 7 10 12 15 19 19 17 16 17 16 14 12 12 13 15 17 18 20 22 22 22 22 22 22 22 22 24 25 25 24 23 24 25 26 26 26 26 25 24 24 25 25 25 26 27 29 30 30 30 30 30 31 32 33
1 1 1 2 5 8 6 4 2 2 4 3 3 5 4 4 5 6 6 6 5 7 10 11 13 13 9 3 2 2 3 7 11 13 15 17 21 20 16 16 17 15 12 11 13 15 16 18 20 21 22 22 22 22 22 23 23 24 26 25 24 24 25 26 27 27 26 26 26 24 24 24 25 25 26 27 29 31 32 32 31 32 33 34 35 35
1 1 1 2 4 5 3 4 4 4 4 4 5 6 5 5 6 6 6 6 6 8 10 9 12 11 3 2 1 3 6 10 13 16 17 18 20 20 18 18 17 13 11 11 13 15 17 19 21 21 22 22 22 22 23 23 24 25 26 25 24 25 27 28 28 27 27 26 24 24 24 24 25 26 28 29 30 32 33 33 33 34 35 36 36 37
2 2 1 1 3 3 3 3 5 4 2 4 6 7 8 7 6 5 5 5 5 7 9 8 8 7 2 2 3 5 8 12 15 17 19 19 19 20 20 19 16 12 11 12 14 17 19 20 21 21 21 21 22 23 22 23 24 26 26 25 25 26 28 28 28 27 26 24 24 24 24 25 26 28 29 31 32 33 34 34 35 35 36 37 37 38
2 2 2 2 2 3 2 4 2 3 1 4 5 6 8 8 5 5 5 6 6 6 7 6 6 6 5 5 6 7 9 12 15 17 18 19 21 21 21 18 13 11 11 13 17 19 20 20 21 22 21 22 22 22 21 23 25 26 26 26 26 27 28 28 27 25 24 24 24 24 25 26 28 29 31 32 33 34 35 35 36 36 36 37 37 38
1 2 2 1 1 4 6 8 3 0 3 3 1 0 2 3 3 5 6 7 7 7 7 8 9 7 6 6 6 8 11 13 17 19 19 21 23 23 20 15 11 11 13 17 19 20 20 21 22 22 22 22 22 21 22 25 26 26 26 26 27 28 27 26 25 24 24 24 25 25 26 27 29 30 32 33 33 34 35 35 36 36 36 36 37 38
2 3 2 1 1 4 6 6 4 3 3 2 2 3 3 1 2 5 8 11 11 11 10 11 10 7 6 8 10 13 15 16 20 21 21 22 21 19 15 11 11 14 17 20 21 20 20 21 21 22 22 22 21 21 24 25 25 25 27 27 27 26 25 24 24 24 25 25 25 26 27 28 30 31 32 33 33 34 35 35 36 35 35 36 36 37
2 2 2 1 1 3 3 3 2 4 1 2 2 2 2 2 2 4 8 10 10 10 10 8 6 5 7 11 14 14 16 19 22 21 18 16 14 13 12 12 14 17 19 20 20 20 20 21 21 22 22 20 21 22 24 25 24 26 28 27 26 24 24 24 25 25 25 25 26 26 27 29 31 32 32 33 33 34 35 35 36 35 35 35 36 37
4 1 1 1 0 1 2 3 5 5 3 2 2 2 3 3 2 1 4 8 9 9 8 4 3 6 10 13 14 14 14 17 17 13 10 9 9 10 12 13 15 17 18 19 20 21 21 22 22 22 21 21 22 22 23 24 25 28 29 26 24 24 24 25 25 25 25 26 26 27 28 30 31 32 33 33 34 34 35 35 35 34 34 35 36 36
4 2 0 0 1 2 1 4 4 5 4 3 2 2 7 7 4 3 1 6 5 3 4 3 4 8 11 12 13 12 11 10 8 5 4 6 8 10 12 14 16 18 19 20 21 22 22 23 23 23 22 22 22 21 22 24 26 27 27 24 24 24 25 25 26 26 26 27 27 28 29 30 31 32 33 34 34 34 35 35 35 34 33 34 35 36
4 3 2 2 2 1 1 3 3 4 3 2 4 6 8 6 3 3 1 5 1 4 4 6 8 10 10 11 12 9 6 6 6 3 3 7 10 12 15 17 18 18 19 20 22 23 23 24 24 23 23 23 22 23 23 24 25 26 25 24 24 25 25 26 26 26 27 28 28 29 29 30 31 32 33 34 34 34 35 35 35 33 33 33 34 35
4 3 3 3 4 3 3 2 3 4 2 2 6 8 8 6 4 3 5 6 3 5 7 9 10 11 11 11 10 5 3 6 8 9 11 14 17 17 18 19 19 19 19 20 22 23 24 24 23 23 23 23 23 23 23 23 23 24 25 25 25 25 25 26 26 26 27 28 28 29 29 30 31 32 33 33 34 34 34 34 34 33 33 33 33 34
3 2 2 2 4 4 4 3 4 4 2 3 8 11 10 6 3 1 5 4 4 5 7 7 10 12 12 12 10 8 10 14 16 19 21 21 21 20 19 19 19 18 18 20 21 22 23 22 22 22 23 23 23 23 23 23 23 24 25 25 25 25 25 25 26 27 27 28 28 29 29 30 31 32 32 32 33 33 34 33 33 33 33 33 33 33
1 1 2 1 2 4 4 3 4 4 2 8 11 10 8 4 1 3 4 3 3 6 8 8 11 12 12 13 13 15 18 20 21 23 23 21 20 20 19 19 19 18 18 19 21 22 22 22 22 23 23 23 22 22 22 22 23 24 25 25 25 25 25 25 26 27 27 28 28 29 29 30 31 31 32 31 31 33 33 33 33 32 32 32 32 33
2 1 2 2 2 2 2 2 3 5 4 13 12 6 6 6 5 7 7 8 10 11 11 12 13 12 13 14 16 18 21 22 23 23 22 21 20 19 19 19 19 18 19 20 22 22 22 23 23 24 23 22 22 22 22 22 24 25 25 25 25 25 25 26 27 27 28 28 29 29 30 31 31 31 31 31 31 32 33 33 33 32 31 31 32 33
2 2 3 2 2 2 2 3 3 2 8 18 15 6 8 12 14 13 11 12 13 13 13 13 14 13 14 16 18 20 22 23 23 23 21 20 19 19 20 20 19 19 20 22 23 22 22 23 24 24 23 23 22 21 21 23 25 25 25 25 25 26 26 27 27 27 28 28 29 30 30 31 31 31 30 30 31 32 33 33 33 32 31 31 31 32
5 5 2 2 3 3 4 7 10 12 9 14 17 18 18 18 17 16 16 17 17 15 14 14 15 16 16 17 20 21 22 23 23 21 20 20 20 20 20 20 20 21 22 23 23 22 22 24 24 24 24 22 21 21 21 22 24 25 25 24 25 26 27 27 27 28 28 28 29 29 30 31 31 30 30 30 31 32 32 32 33 33 32 31 31 31
8 6 3 1 2 5 10 17 22 24 23 19 20 21 21 20 19 19 20 20 18 16 15 16 18 18 18 19 21 22 23 23 22 22 21 21 21 21 21 21 21 22 23 23 22 22 22 23 23 24 24 23 21 21 21 21 22 23 24 24 25 25 26 27 27 28 28 28 29 29 30 31 31 30 30 30 30 30 31 31 32 33 32 31 31 31
6 8 4 2 1 2 6 11 13 16 20 19 18 18 18 18 19 19 19 19 18 17 18 19 20 20 21 21 21 22 23 22 22 22 21 21 21 21 21 22 22 22 23 22 22 22 23 24 24 24 24 23 22 21 21 21 21 22 23 24 24 25 26 26 27 28 28 29 29 29 30 31 31 31 31 31 30 30 29 29 30 32 31 31 31 31
4 6 3 4 5 5 8 11 15 20 24 23 21 20 19 17 17 17 17 18 18 19 20 22 22 22 21 21 21 21 22 22 21 22 22 21 22 22 22 23 23 22 22 21 21 22 23 23 24 24 24 24 23 22 22 21 21 22 23 23 24 25 26 26 27 28 29 29 29 30 30 30 31 32 32 32 31 30 30 29 29 31 31 29 29 31
5 5 4 4 5 7 11 15 17 18 18 17 16 17 17 18 18 17 17 18 18 20 21 22 22 22 21 21 21 21 22 22 22 22 22 22 22 22 23 23 22 22 22 22 22 22 23 24 24 24 24 24 23 22 22 22 21 22 23 23 24 25 25 26 27 28 28 29 29 29 30 30 30 31 31 32 32 30 29 28 28 30 31 29 28 28
6 4 4 3 3 5 8 9 7 5 8 11 12 12 13 16 17 18 19 20 20 20 20 20 21 21 21 21 21 21 22 23 22 21 22 23 23 23 23 22 22 22 22 22 21 22 23 23 23 23 24 24 23 23 23 22 21 22 23 24 25 25 26 27 27 28 28 28 28 29 30 30 30 30 31 32 32 32 32 29 27 27 29 30 28 26
13 11 8 6 6 9 12 12 9 7 10 14 15 16 17 17 18 19 21 21 20 19 19 19 21 22 22 22 21 21 23 24 23 23 24 24 24 23 22 22 23 22 22 22 22 22 23 23 23 23 24 23 23 23 23 23 22 22 23 24 25 26 26 27 28 28 28 28 28 29 29 30 30 30 30 31 32 33 34 33 30 27 26 27 28 27
Wind_Direction
4 16 30 21 358 348 355 357 341 327 324 315 303 302 295 286 319 91 95 2 14 68 77 98 110 118 118 115 114 114 114 112 111 107 101 98 96 92 90 88 84 81 76 69 63 59 56 52 46 40 33 27 24 22 20 18 17 16 13 9 8 8 5 1 359 357 354 351 347 346 342 341 341 333 329 327 322 323 326 323 321 320 319 318 317 314
25 42 37 5 349 348 342 334 338 329 315 308 299 290 291 292 21 75 83 2 4 68 93 106 111 111 112 115 118 122 122 113 108 106 103 101 99 97 95 92 89 86 80 70 61 54 49 47 42 36 30 24 20 17 15 14 12 11 9 6 4 2 1 359 358 355 352 351 347 344 341 337 335 329 325 323 319 320 321 319 317 316 315 314 314 312
67 52 17 352 347 339 326 330 353 338 313 296 287 271 291 7 83 72 54 19 22 83 128 126 112 110 114 111 103 96 87 88 97 102 105 106 104 101 99 96 94 88 80 71 62 53 46 40 36 31 26 21 17 13 11 10 8 6 6 6 2 358 357 356 355 353 350 349 345 342 338 334 332 328 325 321 319 320 319 318 317 316 315 314 313 312
63 30 354 342 329 314 338 26 20 351 327 335 352 318 348 20 13 26 32 3 9 50 142 131 110 113 115 102 86 78 78 79 81 85 89 94 96 94 94 93 91 86 79 73 64 55 45 33 28 24 19 15 13 9 8 7 5 5 4 3 0 356 354 353 352 351 348 345 342 338 334 331 330 327 324 321 321 323 322 322 323 322 323 322 321 319
56 9 344 325 308 322 16 41 26 355 338 31 46 20 3 355 342 9 111 126 47 65 131 127 114 137 134 120 100 90 93 91 85 86 85 87 91 89 89 88 85 84 80 76 68 55 39 28 21 16 12 9 8 8 5 4 3 4 1 359 357 355 352 351 350 348 346 344 340 337 334 331 330 327 325 323 322 325 326 326 327 327 329 329 330 328
38 9 352 333 354 18 35 46 28 358 320 12 56 18 340 326 322 25 130 149 207 217 159 155 164 157 142 126 122 119 112 109 104 103 102 103 104 97 95 92 86 86 81 76 69 47 30 22 14 9 8 6 6 6 3 1 1 1 359 356 355 354 353 351 349 347 346 345 343 342 340 338 338 336 336 335 331 331 332 331 331 332 332 333 334 330
13 7 3 5 24 29 29 33 26 11 328 328 358 322 319 310 304 279 171 188 270 271 172 190 226 111 148 126 126 136 124 119 116 113 113 110 104 96 94 91 87 86 82 76 61 31 19 14 8 5 5 3 3 2 360 358 358 358 357 356 354 354 353 351 350 348 346 346 345 345 345 341 341 340 341 340 335 333 335 334 335 334 334 336 337 327
358 11 14 18 25 28 22 9 11 11 345 312 308 312 309 294 288 283 241 223 259 15 142 202 237 288 134 116 124 136 129 133 133 121 115 105 99 96 91 89 88 86 86 79 46 15 8 7 5 3 0 360 359 357 358 359 358 357 356 357 355 353 353 351 349 348 346 345 344 344 343 339 338 338 337 337 333 331 331 332 334 334 333 334 333 326
1 21 23 21 22 23 5 336 351 4 314 303 326 315 296 278 268 284 279 253 269 300 277 214 223 270 87 119 153 152 148 160 154 137 124 115 108 105 99 96 96 91 87 59 14 2 0 1 1 359 356 355 355 356 359 360 359 357 355 355 354 351 351 350 348 346 345 344 342 341 340 336 335 334 334 334 332 330 328 329 331 331 330 330 328 326
36 61 39 33 27 4 327 307 323 354 269 303 320 300 273 261 249 258 265 270 291 302 329 353 125 207 86 145 182 167 181 200 163 146 137 132 124 115 109 101 96 91 39 326 344 353 355 355 355 355 353 352 353 354 355 356 356 356 353 352 352 351 349 348 347 346 345 344 343 342 341 337 334 332 333 333 332 331 328 327 329 329 328 328 327 326
136 134 60 47 27 332 314 302 245 211 271 301 314 300 282 262 206 209 224 240 310 37 309 336 31 337 284 150 112 87 345 352 140 143 135 136 134 120 107 100 106 101 299 307 325 338 344 349 350 349 349 350 351 349 349 350 352 354 352 348 348 350 347 347 347 346 346 345 343 342 340 337 333 330 331 332 332 332 329 327 328 328 327 327 327 325
115 127 76 61 23 355 330 324 183 215 273 300 313 322 325 346 133 202 239 201 350 322 241 277 334 322 301 121 54 31 19 22 79 147 146 135 126 115 107 122 255 281 292 299 311 321 329 337 343 343 345 347 346 342 340 341 346 350 350 344 343 346 345 344 345 344 344 344 342 341 338 336 333 328 328 330 332 331 329 327 326 326 326 326 326 324
89 75 58 135 27 12 353 347 15 302 310 334 342 356 358 4 28 355 348 357 307 260 215 252 342 343 48 98 60 44 36 31 39 75 124 130 122 129 175 253 279 287 284 287 299 310 317 324 333 338 340 339 336 331 329 332 339 345 346 342 340 342 343 342 343 343 343 343 342 341 339 336 332 325 324 327 330 329 326 325 325 324 324 324 324 322
296 71 27 13 7 10 10 15 13 342 341 351 0 13 14 11 12 342 335 337 301 271 272 325 13 20 114 104 85 68 59 59 60 75 111 133 145 176 220 259 291 290 281 286 296 306 309 309 320 330 330 326 325 324 322 326 334 340 343 339 334 337 340 339 340 341 341 341 341 341 338 334 328 320 318 322 326 325 322 323 325 324 323 321 319 317
320 65 18 4 339 355 13 32 0 255 292 328 3 28 34 40 14 320 319 323 303 293 302 339 52 117 192 120 114 105 89 88 89 101 125 152 182 205 235 267 299 301 290 284 287 300 302 302 310 318 318 317 318 317 315 321 329 335 339 336 330 333 336 335 336 337 337 336 337 337 335 332 325 316 313 318 322 320 319 322 324 324 322 318 315 314
8 100 56 31 22 3 15 15 355 332 262 306 3 39 28 14 306 273 283 288 291 296 304 24 77 36 47 147 150 143 152 149 157 170 172 197 213 223 250 267 285 299 297 283 280 291 294 295 301 306 309 312 315 313 310 316 325 331 336 335 329 329 331 330 332 333 333 332 332 333 333 329 322 312 311 315 317 317 319 321 322 321 319 316 314 313
2 73 167 103 43 27 33 7 8 29 357 288 12 6 299 280 184 241 286 289 304 305 295 96 109 107 97 202 180 176 203 195 196 205 202 213 229 243 260 270 278 285 292 288 285 287 287 289 294 296 302 310 317 314 307 313 322 328 332 331 326 326 326 327 328 329 330 328 328 330 329 324 316 312 312 314 314 315 318 320 319 316 313 313 312 310
351 295 238 125 123 119 78 39 53 50 31 312 33 349 304 287 128 233 298 303 322 311 284 11 15 176 172 239 196 205 222 213 207 206 207 223 239 244 254 271 281 285 291 294 291 287 290 298 298 294 298 306 316 314 307 312 320 324 326 326 323 323 324 324 325 326 326 324 324 326 324 318 314 313 313 312 313 315 316 315 314 312 310 311 311 310
358 307 260 215 162 149 126 118 75 48 39 35 36 6 339 34 16 325 333 311 315 312 298 342 359 354 150 109 190 207 215 215 212 193 195 229 246 253 262 276 284 288 290 289 285 279 284 295 294 292 294 302 313 315 310 312 315 318 321 321 320 321 321 322 323 323 322 322 322 322 320 316 313 313 313 313 314 314 313 313 312 311 311 313 313 312
313 194 266 257 162 145 111 53 353 8 30 36 31 14 353 261 281 282 287 265 284 306 302 323 341 344 109 77 156 189 194 199 206 191 196 224 241 259 279 290 292 292 289 286 283 277 280 291 294 289 289 300 313 314 309 309 312 315 318 318 318 319 320 320 320 320 321 323 323 321 318 316 314 315 315 314 313 312 312 314 314 314 315 315 314 315
308 235 304 304 129 120 66 34 36 359 4 24 36 12 351 339 310 261 219 186 2 310 297 311 313 258 150 234 84 120 166 179 193 197 215 241 258 283 304 309 303 297 290 285 278 273 282 293 293 285 288 302 310 307 305 308 310 313 316 316 317 317 318 318 318 319 322 324 324 320 316 314 313 314 314 312 311 312 315 316 315 314 315 314 314 317
342 308 301 301 314 70 91 55 43 56 41 43 53 12 350 351 344 330 300 44 49 294 260 299 301 261 163 194 219 109 120 131 116 101 268 293 300 306 311 311 305 300 295 285 274 277 287 295 291 285 292 303 305 303 307 311 312 314 316 315 315 315 316 317 318 320 322 323 320 317 314 313 312 311 311 310 312 315 317 314 313 313 312 311 311 310
17 297 283 295 340 60 93 62 54 101 103 89 78 42 359 17 32 339 278 329 357 292 286 321 306 281 199 190 206 144 120 136 146 172 215 247 280 295 304 311 311 306 295 281 281 287 292 295 292 289 297 305 305 306 310 313 314 315 315 314 314 314 315 317 317 319 320 320 318 315 314 313 312 311 312 314 316 316 313 311 310 310 308 307 305 301
17 302 290 290 69 86 96 342 14 120 129 102 79 56 36 64 72 234 250 342 335 286 323 338 302 296 226 212 206 161 148 165 189 211 229 257 290 303 315 321 320 315 297 282 290 293 291 293 292 294 303 308 307 309 312 313 313 314 313 311 311 313 315 316 316 317 318 317 315 314 314 313 312 313 315 316 315 311 308 307 306 306 305 306 307 306
358 356 319 312 309 345 337 317 324 229 265 40 86 74 67 60 341 277 231 330 224 39 17 328 277 293 182 192 192 168 166 193 215 236 273 315 322 321 325 321 318 317 303 292 295 294 291 294 293 298 308 310 308 309 310 310 311 313 311 308 310 313 315 316 315 315 315 315 314 314 314 313 313 314 313 311 308 306 306 306 307 308 310 310 309 307
323 325 353 356 320 323 319 297 286 279 303 342 118 103 73 36 357 316 275 250 233 346 1 293 266 316 334 194 203 190 190 214 236 303 349 347 330 320 319 315 316 317 303 294 297 296 293 294 295 301 308 309 308 307 308 309 311 312 309 308 311 314 314 315 315 313 313 314 314 312 311 312 312 311 308 308 307 307 308 309 310 310 310 309 306 305
261 311 26 52 257 268 288 297 61 22 292 290 50 84 79 48 15 300 262 259 274 312 304 256 295 320 317 314 310 216 181 234 317 359 350 323 310 313 315 315 318 320 307 298 298 298 297 297 297 302 307 308 307 305 305 309 311 309 307 309 313 314 313 314 313 311 312 313 313 310 310 311 310 309 308 309 309 309 310 311 310 309 308 306 305 305
260 269 60 339 256 248 272 291 33 81 273 287 324 26 186 215 303 298 263 259 298 312 278 287 319 313 302 314 332 13 54 354 347 339 319 312 315 318 320 321 322 318 308 299 300 302 300 299 300 304 307 308 306 304 306 309 308 306 307 310 314 314 313 312 311 311 312 313 312 310 309 308 309 309 309 309 308 309 312 312 309 308 308 308 307 308
252 271 140 284 276 268 263 256 233 257 263 280 299 269 243 217 210 232 250 260 268 243 265 294 309 299 297 314 353 59 34 333 319 310 304 312 319 319 319 320 318 313 304 297 301 303 300 299 301 304 307 308 306 306 308 309 307 307 309 312 314 314 312 311 312 313 313 312 311 312 311 310 311 311 310 310 310 312 314 315 313 312 312 313 314 315
154 274 183 195 287 287 259 212 186 247 254 255 255 251 253 237 218 218 233 252 254 250 267 289 297 294 298 324 26 27 326 309 307 303 304 315 321 323 322 318 313 307 297 293 299 301 299 298 300 303 305 306 306 307 308 307 306 308 312 315 315 315 314 314 315 315 314 313 314 315 315 313 312 311 310 312 314 315 317 318 317 316 318 319 320 320
53 1 176 172 294 292 214 178 201 222 242 259 251 239 238 247 246 232 231 246 257 261 271 283 291 291 269 168 242 298 306 310 308 304 308 316 318 320 319 313 307 299 290 292 300 302 301 299 300 303 305 306 306 306 306 305 306 310 314 315 314 313 315 316 317 316 315 316 318 317 315 313 311 311 313 317 319 320 321 321 320 321 323 324 324 323
18 329 263 69 325 285 173 203 220 197 235 279 262 243 231 232 241 232 227 238 250 274 288 287 286 284 232 198 274 301 313 315 308 306 311 314 311 312 312 307 299 289 286 294 302 304 303 300 300 303 305 305 305 306 306 305 307 311 314 315 313 314 316 317 317 318 318 319 319 318 316 314 313 315 319 322 324 325 325 324 324 326 327 327 326 324
62 323 307 32 326 280 299 300 256 117 0 287 258 240 226 220 236 244 241 248 259 286 297 282 271 279 302 325 324 316 317 315 310 312 315 312 307 305 304 299 288 278 283 294 302 303 300 298 299 303 304 303 305 306 304 303 307 311 312 314 315 315 316 317 318 319 320 320 319 317 315 316 317 320 323 326 327 327 327 326 327 328 329 328 326 325
159 266 283 57 281 275 306 316 309 308 287 258 208 283 217 204 233 246 252 267 276 276 266 264 272 284 310 333 325 309 309 308 309 311 310 306 302 298 294 287 272 272 285 295 301 300 296 296 299 301 302 303 304 303 301 303 308 311 312 316 318 317 317 318 320 322 321 320 318 317 318 320 321 323 325 327 327 327 327 328 328 329 329 327 325 325
283 282 273 124 193 264 298 329 318 273 247 195 134 64 63 101 223 251 264 267 266 266 263 265 273 287 314 319 308 302 301 301 306 308 303 297 291 284 277 265 262 279 292 298 300 298 296 298 300 301 303 305 303 300 301 306 309 311 314 318 320 320 320 321 322 323 321 320 319 320 322 323 324 324 326 327 327 327 327 327 328 329 329 326 326 326
264 297 279 243 224 272 311 349 291 260 219 133 146 137 147 202 227 262 273 261 249 257 267 264 268 290 306 304 299 298 299 304 309 307 297 288 280 271 267 270 280 292 297 298 297 297 299 301 301 303 305 304 302 301 304 308 310 311 315 319 321 322 322 323 324 323 322 322 323 324 326 326 325 326 327 327 328 328 328 328 329 330 329 327 326 327
237 247 288 289 159 179 282 273 260 274 283 168 174 186 164 160 146 164 273 273 260 255 260 262 278 289 290 293 295 301 308 312 311 301 281 279 287 290 288 290 296 298 295 294 295 297 301 303 303 304 304 303 304 306 307 309 311 314 316 319 322 322 323 325 326 324 325 326 327 328 328 327 326 327 328 329 328 328 329 329 330 331 330 327 326 328
247 241 132 133 179 151 280 294 292 291 274 204 175 108 110 110 102 117 221 283 277 207 195 208 253 272 281 291 299 310 323 319 306 288 279 296 302 300 297 297 298 298 294 293 296 298 302 303 304 305 304 306 310 310 308 310 314 316 317 320 323 323 324 326 327 327 328 329 329 330 329 327 327 328 328 328 327 327 328 329 331 332 331 328 327 328
252 246 184 194 248 223 260 287 276 270 269 167 142 131 120 120 123 108 30 295 264 139 192 229 248 266 279 291 298 312 331 313 297 305 326 318 310 304 301 300 299 296 291 290 294 298 301 304 305 306 307 310 312 310 310 313 316 317 319 321 323 324 325 326 327 328 329 329 330 329 328 328 328 328 327 326 326 326 327 328 330 331 331 330 329 328
237 238 198 210 256 244 198 235 254 257 272 127 135 140 141 152 144 86 336 296 220 202 235 236 249 269 281 289 293 290 247 263 285 301 306 305 304 302 300 299 297 293 288 286 290 295 300 303 305 306 308 310 311 311 312 315 317 317 318 319 321 323 324 325 327 328 328 329 329 328 328 329 329 328 327 326 326 326 326 328 329 330 331 331 331 330
213 221 198 206 267 252 223 246 262 254 245 138 138 147 152 149 126 342 306 276 197 226 254 253 265 279 283 284 281 264 257 268 281 291 296 297 297 296 294 292 292 290 287 287 291 297 301 303 303 304 306 309 311 313 314 317 318 318 317 317 320 322 323 324 326 327 327 328 328 328 329 330 329 328 328 328 327 326 327 329 330 330 332 332 332 331
206 215 196 182 251 238 222 236 267 277 216 142 142 153 162 150 356 277 277 298 277 276 290 290 286 287 284 277 272 271 276 282 286 290 295 295 293 293 292 291 292 290 285 286 293 299 301 301 301 304 308 312 315 316 316 317 318 318 317 318 320 321 322 324 326 327 327 327 328 329 330 330 330 330 330 330 330 329 330 331 331 332 333 333 332 332
171 188 235 234 208 216 254 261 280 292 202 157 146 139 168 193 264 290 295 299 292 291 299 297 292 291 285 277 277 279 283 286 288 291 293 292 290 289 289 291 292 289 286 289 296 301 302 302 305 309 312 315 317 316 316 316 317 318 319 320 321 323 323 325 326 326 326 327 329 330 330 330 331 331 330 331 333 333 333 334 334 334 335 335 334 333
173 173 227 240 162 146 237 225 225 258 181 172 177 214 228 236 267 286 286 287 291 295 297 293 291 291 284 279 282 284 286 288 289 291 292 290 287 287 287 289 289 286 286 293 299 302 302 303 307 311 314 316 316 315 315 316 316 318 321 322 323 323 324 325 325 325 326 328 329 330 330 330 331 330 330 333 335 335 335 335 335 336 338 337 334 333
204 183 183 240 213 201 228 244 266 286 261 212 222 250 259 261 268 273 275 283 290 290 288 287 288 287 283 281 283 284 285 287 289 289 289 286 285 286 286 286 287 287 290 296 300 302 302 304 308 312 313 315 315 313 313 314 315 317 321 322 323 324 324 325 325 326 328 330 330 331 331 331 331 331 333 336 337 336 336 336 336 338 340 338 335 333
203 173 127 82 243 260 266 259 262 273 275 262 254 260 266 268 268 270 275 281 284 283 282 284 285 286 285 284 282 282 285 287 287 287 285 284 284 285 284 284 287 289 292 296 299 301 302 305 309 311 312 313 314 312 311 312 314 317 320 322 323 324 324 325 326 327 329 330 331 333 332 332 333 334 335 338 338 337 337 338 337 338 340 340 337 334
189 170 172 226 229 293 273 248 244 259 270 271 268 266 267 269 270 271 274 276 279 281 281 282 284 286 286 285 283 284 286 287 286 284 284 283 283 282 282 285 288 291 295 298 300 302 303 306 309 311 311 312 314 312 311 312 315 317 319 320 322 323 324 326 327 327 329 331 332 333 333 333 335 336 337 338 338 337 338 340 339 338 340 343 340 336
176 163 196 239 219 225 252 258 266 276 278 278 276 271 269 269 268 270 273 276 279 281 283 286 288 288 287 287 286 285 286 286 285 284 285 285 283 282 284 288 291 295 297 299 301 302 303 306 309 310 310 312 314 313 312 313 315 316 317 319 321 322 324 325 326 326 328 331 332 332 334 336 337 337 337 337 337 338 340 342 341 339 340 344 343 339
149 160 205 231 235 253 264 267 273 282 283 278 273 271 268 265 263 265 271 275 280 284 286 287 288 289 290 290 288 285 285 286 286 285 286 286 284 284 287 290 293 295 297 300 302 303 304 307 309 310 311 312 313 313 312 313 315 315 316 317 319 321 322 323 324 325 327 330 331 332 334 336 337 338 337 336 337 339 341 344 345 341 340 344 345 341
154 195 222 217 254 266 257 252 256 275 283 281 280 279 274 270 269 270 274 279 284 288 287 286 287 290 291 290 290 288 286 287 289 287 287 288 288 288 291 293 294 295 298 301 302 303 305 307 309 309 310 312 312 311 311 313 315 316 316 316 317 320 321 322 323 324 326 329 331 332 334 335 337 338 337 337 338 339 340 344 347 345 342 342 344 345
212 230 217 198 232 254 258 267 275 272 272 281 288 288 286 285 284 284 285 288 290 289 287 286 287 289 289 287 286 285 285 287 289 288 289 290 290 290 292 294 295 297 300 302 304 305 306 307 308 308 310 312 311 311 311 313 316 317 315 314 316 319 320 321 322 323 325 329 331 331 332 334 336 337 337 338 339 339 339 342 345 348 349 345 344 347